"Time","Temp","Dewpoint","Humidity","Pressure","Direction","Speed","Gust","Precip","PrecipRate"
"00:04:57","54.2","53.6","98","29.82","210","3.1","7.2","0.00","0.00"
"00:09:59","54.1","53.5","98","29.82","210","2.3","3.6","0.00","0.00"
"00:14:59","54.1","53.5","98","29.82","194","2.2","6","0.00","0.00"
"00:19:58","54.3","53.7","98","29.82","207","2.9","7.2","0.00","0.00"
"00:24:57","54.5","53.9","98","29.82","211","2.8","6","0.00","0.00"
"00:29:56","54.7","54.1","98","29.82","192","2.3","4.8","0.00","0.00"
"00:34:59","54.9","54.3","98","29.81","191","3.7","8.4","0.00","0.00"
"00:39:59","55.1","54.5","98","29.81","195","4.9","8.4","0.00","0.00"
"00:44:58","55.3","54.7","98","29.81","188","5.1","12","0.00","0.00"
"00:49:57","55.5","54.8","97.8","29.80","182","4.1","8.4","0.00","0.00"
"00:54:59","55.6","54.8","97","29.80","169","2.9","10.8","0.00","0.00"
"00:59:59","55.8","55","97","29.80","180","4.7","10.8","0.00","0.00"
"01:04:56","56","55","96.4","29.78","214","3.6","7.2","0.00","0.00"
"01:09:59","56.1","55","96","29.78","204","4.7","8.4","0.00","0.00"
"01:14:59","56.3","55.2","96","29.79","214","4.3","8.4","0.00","0.00"
"01:19:59","56.3","54.9","95.2","29.79","208","4.3","13.2","0.00","0.00"
"01:24:58","56.4","55.1","95.5","29.79","203","5","10.8","0.00","0.00"
"01:29:57","56.5","55.2","95.3","29.79","181","4","12","0.00","0.00"
"01:34:57","56.6","55.2","95","29.77","188","4.1","8.4","0.00","0.00"
"01:39:58","56.7","55.3","95","29.77","204","2.9","7.2","0.00","0.00"
"01:44:58","56.7","55.3","95","29.77","200","3.2","6.9","0.00","0.00"
"01:49:58","56.7","55.3","95","29.77","185","2.7","6","0.00","0.00"
"01:54:57","56.7","55.3","95","29.77","175","2.4","8.4","0.00","0.00"
"01:59:57","56.8","55.4","94.8","29.77","185","4.3","12","0.00","0.00"
"02:04:57","56.9","55.2","94.2","29.77","190","4.1","11.5","0.00","0.00"
"02:09:56","57","55.3","94","29.77","187","6.1","15","0.00","0.00"
"02:14:59","57.1","55.4","94","29.77","174","4.7","10.8","0.00","0.00"
"02:19:58","57.2","55.5","93.9","29.75","166","4.5","9.6","0.00","0.00"
"02:24:58","57.2","55.3","93.3","29.75","160","3.6","9.2","0.00","0.00"
"02:29:57","57.1","55.1","93","29.75","149","3.3","6","0.00","0.00"
"02:34:57","57.1","55.1","93","29.73","222","2.7","7.2","0.00","0.00"
"02:39:57","57","55.1","93.5","29.73","353","5.3","8.4","0.00","0.00"
"02:44:56","56.8","55.1","94","29.75","353","4.4","8.4","0.00","0.00"
"02:49:59","57","55.3","93.8","29.75","282","2.6","9.6","0.00","0.00"
"02:54:58","57.5","55.5","92.8","29.75","214","5.7","10.8","0.01","0.01"
"02:59:57","57.9","55.7","92.1","29.75","193","4.5","13.2","0.01","0.01"
"03:04:58","58.2","55.8","91.7","29.73","197","4","12","0.01","0.01"
"03:09:58","58.2","55.6","91","29.73","177","1.1","3.6","0.01","0.01"
"03:14:57","58.1","55.5","91","29.73","176","1","2.4","0.01","0.01"
"03:19:57","57.9","55.4","91.3","29.70","175","0.6","2.4","0.01","0.01"
"03:24:57","57.7","55.4","92","29.70","145","1.7","4.8","0.01","0.01"
"03:29:57","57.5","55.2","92","29.70","100","2","3.6","0.01","0.01"
"03:34:57","57.4","55.1","92.2","29.70","118","2","6","0.01","0.01"
"03:39:56","57.3","55.3","93","29.70","177","2.6","6","0.01","0.01"
"03:44:59","57.3","55.3","93","29.70","170","4.6","12","0.01","0.01"
"03:49:57","57.6","55.6","93","29.70","170","6.5","15","0.01","0.01"
"03:54:57","57.9","55.9","92.7","29.70","188","6.1","13.2","0.01","0.01"
"03:59:56","58","55.8","92.2","29.70","284","7.1","18.4","0.01","0.00"
"04:04:57","58.3","56","92","29.70","193","6.5","18.4","0.01","0.00"
"04:09:56","58.4","56.1","92","29.70","200","6.1","19.6","0.01","0.00"
"04:14:59","58.5","56.2","92","29.70","187","5.7","15","0.01","0.00"
"04:19:58","58.4","56.1","92","29.69","187","5.7","12","0.01","0.00"
"04:24:58","58.4","56.1","92","29.69","192","5.3","12","0.02","0.00"
"04:29:58","58.3","56.2","92.6","29.70","216","5.4","10.8","0.02","0.01"
"04:34:57","58.2","56.2","93","29.70","229","5.3","13.2","0.02","0.01"
"04:39:57","58.1","56.1","93","29.70","213","4.3","7.2","0.02","0.01"
"04:44:56","58.1","56.1","93","29.71","184","3","7.2","0.03","0.02"
"04:49:56","58","56.1","93.3","29.71","210","2.7","6","0.04","0.02"
"04:54:59","57.9","56.2","94","29.71","222","3.1","7.2","0.05","0.03"
"04:59:58","57.8","56.1","94","29.72","217","3.6","8.4","0.05","0.04"
"05:04:58","57.8","56.1","94.1","29.72","214","3.7","7.2","0.06","0.05"
"05:09:57","57.7","56.2","94.7","29.72","217","3","6","0.07","0.06"
"05:14:57","57.7","56.3","95","29.73","221","2.7","6","0.08","0.06"
"05:19:56","57.7","56.3","95","29.73","250","3.5","7.2","0.08","0.07"
"05:24:59","57.8","56.4","95","29.73","213","2.6","9.6","0.09","0.08"
"05:29:58","57.7","56.3","95","29.73","194","1.7","3.6","0.10","0.08"
"05:34:58","57.7","56.3","95","29.72","191","1.8","4.8","0.12","0.10"
"05:39:58","57.7","56.3","95","29.72","191","1.3","3.6","0.15","0.12"
"05:44:57","57.7","56.5","95.9","29.72","223","2.2","6","0.16","0.13"
"05:49:56","57.7","56.6","96","29.72","240","1.8","4.6","0.17","0.14"
"05:54:59","57.7","56.6","96","29.72","203","1.5","4.8","0.17","0.13"
"05:59:59","57.7","56.6","96","29.72","208","1.8","3.6","0.18","0.13"
"06:04:59","57.7","56.6","96","29.71","195","1.4","6","0.19","0.14"
"06:09:59","57.8","56.7","96","29.71","214","3.5","6","0.19","0.13"
"06:14:59","57.8","56.7","96","29.71","196","2.6","8.4","0.20","0.13"
"06:19:59","57.9","56.8","96","29.70","193","3.7","8.1","0.21","0.13"
"06:24:58","58","56.9","96","29.70","195","2.6","6","0.22","0.13"
"06:29:58","57.9","56.8","96","29.70","198","2.3","8.4","0.23","0.13"
"06:34:58","57.9","56.8","96","29.69","203","2.4","7.2","0.23","0.13"
"06:39:58","57.8","56.7","96","29.69","159","2.1","5.8","0.23","0.11"
"06:44:58","57.8","56.7","96","29.69","175","2.4","7.2","0.25","0.09"
"06:49:58","57.7","56.6","96","29.69","200","3.9","12","0.26","0.09"
"06:54:58","57.7","56.6","96","29.69","202","2.6","6","0.27","0.10"
"06:59:58","57.7","56.7","96.5","29.69","205","4.1","8.4","0.29","0.11"
"07:04:58","57.7","56.9","97","29.69","194","3.8","7.2","0.30","0.11"
"07:09:57","57.7","56.9","97","29.69","213","4","7.2","0.31","0.12"
"07:14:58","57.6","56.8","97","29.69","237","3.2","6.9","0.32","0.12"
"07:19:58","57.6","56.8","97","29.69","181","2.5","4.8","0.35","0.14"
"07:24:58","57.7","56.9","97","29.69","195","3.1","8.4","0.38","0.16"
"07:29:59","57.7","56.9","97","29.69","245","2.7","6","0.39","0.17"
"07:34:56","57.7","56.9","97","29.69","228","3.6","6","0.41","0.18"
"07:39:58","57.7","56.9","97","29.69","212","2.5","6","0.43","0.20"
"07:44:56","57.7","56.9","97","29.69","176","3.6","7.2","0.44","0.20"
"07:49:56","57.7","56.9","97","29.67","159","2.6","6","0.44","0.19"
"07:54:59","57.8","57","97","29.67","168","3.1","8.4","0.44","0.18"
"07:59:58","57.8","57","97","29.67","177","3.9","12","0.45","0.17"
"08:04:57","57.9","57.1","97","29.65","177","3","8.1","0.45","0.16"
"08:09:59","58","57.2","97","29.65","178","3.6","9.6","0.45","0.15"
"08:14:57","58","57.2","97","29.65","174","3.3","8.4","0.45","0.14"
"08:19:58","58.2","57.4","97","29.65","177","5","12","0.45","0.13"
"08:23:53","58.2","57.4","97","29.65","156","4.5","8.4","0.45","0.09"
"08:29:57","58.3","57.5","97","29.65","181","6.2","13.2","0.45","0.07"
"08:34:58","58.4","57.6","97","29.65","213","6.2","13.2","0.45","0.07"
"08:39:58","58.5","57.7","97","29.65","243","5.3","12.7","0.45","0.04"
"08:44:57","58.6","57.8","97","29.65","206","4.9","12","0.45","0.02"
"08:49:57","58.6","57.8","97","29.65","188","5.2","13.2","0.45","0.01"
"08:54:56","58.7","57.9","97","29.65","174","5.2","13.2","0.45","0.01"
"08:59:59","58.8","58","97","29.65","197","4.7","10.8","0.45","0.01"
"09:04:58","58.9","58.1","97","29.61","211","5.7","12","0.45","0.00"
"09:09:57","58.9","57.9","96.3","29.61","195","3.7","9.2","0.45","0.00"
"09:14:57","59","57.9","96","29.61","170","3.7","8.4","0.45","0.00"
"09:19:58","59.1","58","96","29.59","188","4.7","10.8","0.45","0.00"
"09:24:59","59.3","58.2","96","29.59","210","5","12","0.45","0.00"
"09:29:56","59.3","58.2","96","29.63","222","7.4","15","0.45","0.00"
"09:34:59","59.5","58.4","96","29.63","231","6.5","14.4","0.45","0.00"
"09:39:58","59.7","58.6","96","29.63","224","6.5","15","0.45","0.00"
"09:44:59","59.7","58.6","96","29.65","205","3.8","7.2","0.45","0.00"
"09:49:56","59.8","58.7","96","29.65","211","5.5","15.6","0.45","0.00"
"09:54:56","59.8","58.4","95.2","29.65","222","5","10.8","0.45","0.00"
"09:59:56","59.9","58.5","95.2","29.65","208","4.2","7.2","0.45","0.00"
"10:04:59","59.9","58.5","95","29.65","220","5.1","10.8","0.45","0.00"
"10:09:57","60.1","58.7","95","29.65","213","4.5","7.2","0.45","0.00"
"10:14:58","60.1","58.7","95","29.66","200","3.7","7.2","0.45","0.00"
"10:19:56","60.2","58.8","95","29.66","230","3.7","6","0.45","0.00"
"10:24:55","60.2","58.8","95","29.66","272","4.1","18","0.45","0.00"
"10:29:59","58.7","53.8","83.9","29.70","323","11.6","31.2","0.46","0.01"
"10:34:58","56.1","50.3","80.9","29.70","336","10.7","31.1","0.46","0.01"
"10:39:58","54.6","49.9","84.1","29.70","321","9.4","21.6","0.46","0.01"
"10:44:58","53.5","49.4","85.8","29.70","331","8.7","19.6","0.46","0.01"
"10:49:57","53","48.8","85.8","29.69","335","7.3","21.6","0.46","0.01"
"10:54:57","52.7","48.6","86","29.69","320","5.1","21.9","0.46","0.01"
"10:59:57","52.6","48.2","85.1","29.70","309","8.2","23","0.46","0.01"
"11:04:56","52.6","47.5","82.8","29.70","320","8.6","21.9","0.46","0.01"
"11:09:59","52.6","47.2","81.7","29.70","320","8.2","18.4","0.46","0.01"
"11:14:59","52.6","46.8","80.6","29.71","319","8.2","23","0.46","0.01"
"11:19:56","52.6","46.6","80","29.71","327","7.9","19.6","0.46","0.01"
"11:24:56","52.6","46.4","79.3","29.71","323","8.2","17.3","0.46","0.01"
"11:29:56","52.5","45.9","78.5","29.71","329","10.6","24.2","0.46","0.01"
"11:34:59","52.3","45.5","77.6","29.71","319","8.8","23","0.46","0.00"
"11:39:59","52.3","45.3","77","29.71","319","5.8","28.8","0.46","0.00"
"11:44:59","52.3","45.2","76.5","29.71","324","7.7","28.8","0.46","0.00"
"11:49:58","52.3","45","76","29.71","326","6","16.1","0.46","0.00"
"11:54:58","52.3","45.1","76.4","29.71","335","7.8","20.7","0.46","0.00"
"11:59:58","52.3","45.3","77","29.71","322","7.5","20.7","0.46","0.00"
"12:04:57","52.3","45.3","77","29.71","323","8.3","18.4","0.46","0.00"
"12:09:59","52.1","44.9","76.5","29.71","332","9.2","24.2","0.46","0.00"
"12:14:59","51.8","44.3","75.7","29.71","319","9","25.3","0.46","0.00"
"12:19:58","51.4","43.9","75.5","29.71","326","10","19.6","0.46","0.00"
"12:24:58","51.1","43.6","75.5","29.71","339","7.1","19.2","0.46","0.00"
"12:29:58","50.9","42.9","74.2","29.71","333","10.6","20.7","0.46","0.00"
"12:34:57","50.8","42.6","73.4","29.71","320","6.3","19.6","0.46","0.00"
"12:39:58","50.8","42.8","74","29.71","324","5.2","15","0.46","0.00"
"12:44:58","50.7","42.7","73.8","29.71","332","5","15","0.46","0.00"
"12:49:56","50.8","42.3","72.7","29.71","321","6.5","17.3","0.46","0.00"
"12:54:56","50.8","41.8","71.2","29.71","346","7.3","19.6","0.46","0.00"
"12:59:56","50.7","41.6","70.8","29.71","323","9","25.2","0.46","0.00"
"13:04:56","50.7","41.2","69.9","29.71","340","10.6","25.3","0.46","0.00"
"13:09:58","50.6","40.8","68.9","29.71","328","10.4","26.5","0.46","0.00"
"13:14:59","50.6","40.5","68.3","29.71","346","10.9","28.8","0.46","0.00"
"13:19:58","50.6","40","67","29.70","329","11.7","28.8","0.46","0.00"
"13:24:58","50.6","40.4","68.1","29.70","327","7.3","19.2","0.46","0.00"
"13:29:58","50.6","39.9","66.6","29.71","334","11","24.2","0.46","0.00"
"13:34:57","50.8","40.2","67.1","29.71","335","8.2","19.6","0.46","0.00"
"13:39:57","51.2","40.8","67.4","29.71","343","11.3","24.2","0.46","0.00"
"13:44:56","51.5","41.3","68","29.71","333","8.2","19.2","0.46","0.00"
"13:49:56","51.5","40.8","66.6","29.71","332","10.2","21.9","0.46","0.00"
"13:54:56","51.3","40.9","67.5","29.71","343","8.5","23","0.46","0.00"
"13:59:59","51.2","41.2","68.5","29.72","344","10.5","25.2","0.46","0.00"
"14:04:57","50.8","40.5","67.6","29.72","335","14.7","31.2","0.46","0.00"
"14:09:56","50.5","40.5","68.6","29.72","333","9.4","28.8","0.46","0.00"
"14:14:56","50.4","40.5","68.8","29.72","331","11.9","24.2","0.46","0.00"
"14:19:57","50.1","40","68.3","29.72","335","13.9","26.5","0.46","0.00"
"14:24:59","49.8","39.7","68","29.72","321","9.7","25.3","0.46","0.00"
"14:29:59","49.7","39.5","67.8","29.73","331","12.8","25.3","0.46","0.00"
"14:34:56","49.5","39.2","67.5","29.73","327","10.9","30","0.46","0.00"
"14:39:56","49.1","38.4","66.4","29.73","326","14.1","27.6","0.46","0.00"
"14:44:56","48.4","37.3","65.2","29.74","334","16.4","30","0.46","0.00"
"14:49:58","48","37.3","66.3","29.74","327","14","31.2","0.46","0.00"
"14:54:58","47.9","37.4","66.6","29.74","336","10.8","26.5","0.46","0.00"
"14:59:58","47.6","36.8","66.1","29.76","327","15.8","31.2","0.46","0.00"
"15:04:56","47.1","36","65.5","29.76","324","12.9","25.3","0.46","0.00"
"15:09:59","46.6","35.9","66.2","29.76","333","13.9","27.6","0.46","0.00"
"15:14:59","45.9","35","65.3","29.79","340","17.1","31.2","0.46","0.00"
"15:19:58","45.1","34.5","66.1","29.79","330","14.7","40.8","0.46","0.00"
"15:24:57","44.5","33.6","65.4","29.79","318","14.2","37.2","0.46","0.00"
"15:29:57","44.3","33.8","66.4","29.81","314","9.2","24","0.46","0.00"
"15:34:56","44.2","33.6","65.8","29.81","322","12.8","27.6","0.46","0.00"
"15:39:56","44.1","33.3","65.3","29.81","329","14.7","33.6","0.46","0.00"
"15:44:57","43.9","32.8","64.7","29.83","341","14.3","33.6","0.46","0.00"
"15:49:57","43.8","32.7","64.7","29.83","323","11.8","33.6","0.46","0.00"
"15:54:56","43.9","32.4","63.6","29.83","310","11.7","31.1","0.46","0.00"
"15:59:57","45.1","33.1","62.6","29.85","344","13.3","31.2","0.46","0.00"
"16:04:56","45.3","32.8","61.3","29.85","325","13.6","28.8","0.46","0.00"
"16:09:59","45.5","32.9","61.2","29.85","320","10.2","24","0.46","0.00"
"16:14:59","45.9","33.5","61.5","29.87","332","9.3","24.2","0.46","0.00"
"16:19:58","46","33.4","61.3","29.87","321","9.8","23","0.46","0.00"
"16:24:58","45.6","33.4","62.1","29.87","10","8.7","19.2","0.46","0.00"
"16:29:59","45","32.1","60.4","29.88","328","13.9","33.6","0.46","0.00"
"16:34:58","43.6","30.7","60.2","29.88","326","17.5","33.6","0.46","0.00"
"16:39:59","42.9","30.7","61.7","29.88","329","15.2","36","0.46","0.00"
"16:44:59","42.5","30.9","63.2","29.89","322","12.4","25.2","0.46","0.00"
"16:49:58","42.3","30.8","63.5","29.89","328","14","34.8","0.46","0.00"
"16:54:58","41.9","30.2","63","29.89","331","11.4","25.3","0.46","0.00"
"16:59:58","41.6","29.8","62.7","29.91","330","13.4","27.6","0.46","0.00"
"17:04:56","41.4","29.8","63.2","29.91","331","12.2","27.6","0.46","0.00"
"17:09:59","41.3","30","64.1","29.91","335","9.5","21.9","0.46","0.00"
"17:14:59","41.1","29.9","64.3","29.93","311","8.3","23","0.46","0.00"
"17:19:58","40.8","29.1","62.8","29.93","335","14","28.8","0.46","0.00"
"17:24:59","40.6","29.1","63.3","29.93","316","10.8","25.2","0.46","0.00"
"17:29:59","40.3","28.7","63","29.93","343","12.8","28.8","0.46","0.00"
"17:34:58","40.1","29","64.1","29.93","335","10.2","34.8","0.46","0.00"
"17:39:59","39.9","28.6","63.8","29.93","336","15.3","34.5","0.46","0.00"
"17:44:56","39.5","27.7","62.3","29.95","338","14.8","31.1","0.46","0.00"
"17:49:59","39.3","27.6","62.7","29.95","324","11.1","25.3","0.46","0.00"
"17:54:56","39.2","27.3","62","29.95","329","13.6","27.6","0.46","0.00"
"17:59:57","39.1","27.1","61.7","29.97","328","13.9","27.6","0.46","0.00"
"18:04:57","38.9","26.7","61.2","29.97","328","13.8","27.6","0.46","0.00"
"18:09:59","38.8","26.8","61.7","29.97","330","10.6","27.6","0.46","0.00"
"18:14:57","38.6","26.8","62.4","29.98","331","10","27.6","0.46","0.00"
"18:19:57","38.4","26.5","62","29.98","328","12.2","25.3","0.46","0.00"
"18:24:58","38.2","26","61.2","29.98","321","12.1","24.2","0.46","0.00"
"18:29:56","38.1","26.2","62","29.99","334","11","21.6","0.46","0.00"
"18:34:56","37.9","25.9","61.7","29.99","332","11.4","23","0.46","0.00"
"18:39:58","37.7","26.2","62.9","29.99","318","6.1","13.2","0.46","0.00"
"18:44:59","37.5","26.2","63.4","29.99","327","6.5","15","0.46","0.00"
"18:49:59","37.3","26.3","64.2","29.99","307","7.2","13.2","0.46","0.00"
"18:54:56","37.1","25.9","63.6","29.99","316","9.4","27.6","0.46","0.00"
"18:59:57","37","25.8","63.5","30.00","315","8.6","27.6","0.46","0.00"
"19:04:57","36.8","25.7","63.7","30.00","301","8.4","17.3","0.46","0.00"
"19:09:56","36.7","25.7","64.1","30.00","299","5.2","16.1","0.46","0.00"
"19:14:57","36.6","25.2","63.1","30.03","344","8.2","17.3","0.46","0.00"
"19:19:56","36.6","24.9","62.4","30.03","333","9","24","0.46","0.00"
"19:24:57","36.5","24.9","62.5","30.03","312","6.4","16.1","0.46","0.00"
"19:29:57","36.4","24.5","61.8","30.03","293","8.6","17.3","0.46","0.00"
"19:34:58","36.2","24.4","62","30.03","320","6.7","16.1","0.46","0.00"
"19:39:56","36.1","24.7","63","30.03","311","4.3","17.3","0.46","0.00"
"19:44:57","35.9","24.5","63.1","30.05","318","2.9","7.2","0.46","0.00"
"19:49:57","35.9","24.8","63.8","30.05","193","2.1","6","0.46","0.00"
"19:54:59","35.8","24.8","63.9","30.05","185","2.1","7.2","0.46","0.00"
"19:59:56","35.8","24.4","63","30.06","354","4","9.6","0.46","0.00"
"20:04:57","35.8","24.3","62.8","30.06","358","3.6","9.2","0.46","0.00"
"20:09:59","35.8","24.2","62.7","30.06","60","2.6","8.4","0.46","0.00"
"20:14:57","35.7","24.1","62.5","30.07","333","3.8","18","0.46","0.00"
"20:19:56","35.9","23.9","61.5","30.07","5","5.1","19.6","0.46","0.00"
"20:24:57","36","24.1","61.9","30.07","330","3","19.6","0.46","0.00"
"20:29:59","35.9","24.3","62.5","30.08","343","5.8","21.9","0.46","0.00"
"20:34:56","36","24.2","62","30.08","325","5.3","12","0.46","0.00"
"20:39:58","36.1","24.2","61.7","30.08","332","6.7","16.1","0.46","0.00"
"20:44:59","36.1","23.9","61.1","30.10","329","7.4","20.7","0.46","0.00"
"20:49:57","36.1","24.3","62.1","30.10","344","3.1","15","0.46","0.00"
"20:54:58","35.9","24","61.7","30.10","310","6.2","24.2","0.46","0.00"
"20:59:59","35.9","24.2","62.2","30.11","337","7","19.6","0.46","0.00"
"21:04:59","35.8","23.8","61.6","30.11","343","9.9","25.3","0.46","0.00"
"21:09:58","35.7","23.9","61.9","30.11","337","6.2","25.3","0.46","0.00"
"21:14:59","35.5","24.1","63.1","30.13","276","2.8","21.6","0.46","0.00"
"21:19:57","35.3","23.6","62.1","30.13","308","9.9","21.9","0.46","0.00"
"21:24:58","35","22.9","61","30.13","310","9.7","28.8","0.46","0.00"
"21:29:59","34.8","22.8","61.1","30.13","330","9.8","27.6","0.46","0.00"
"21:34:57","34.6","22.9","61.9","30.13","327","7.9","20.4","0.46","0.00"
"21:39:58","34.5","22.2","60.4","30.13","347","12.9","24.2","0.46","0.00"
"21:44:59","34.4","22","60.4","30.13","341","9.2","21.9","0.46","0.00"
"21:49:57","34.2","22.3","61.5","30.13","324","6","31.2","0.46","0.00"
"21:54:59","34","22.1","61.2","30.13","330","10.3","31.1","0.46","0.00"
"21:59:56","34","22.1","61.3","30.14","332","8.4","24.2","0.46","0.00"
"22:04:58","33.9","22","61.3","30.14","337","8","20.7","0.46","0.00"
"22:09:56","33.8","22.1","62","30.14","352","7.5","20.7","0.46","0.00"
"22:14:57","33.8","22.1","62","30.16","357","7.8","17.3","0.46","0.00"
"22:19:58","33.7","22","61.8","30.16","342","8.9","19.6","0.46","0.00"
"22:24:56","33.6","21.8","61.5","30.16","338","8.4","19.6","0.46","0.00"
"22:29:57","33.5","21.7","61.5","30.17","340","7.8","26.4","0.46","0.00"
"22:34:58","33.5","21.1","60","30.17","310","9","26.5","0.46","0.00"
"22:39:59","33.4","21.2","60.4","30.17","333","6.2","18.4","0.46","0.00"
"22:44:57","33.3","21.2","60.6","30.18","339","10.9","26.5","0.46","0.00"
"22:49:59","33.3","21.2","60.6","30.18","334","8.4","19.6","0.46","0.00"
"22:54:56","33.2","21.2","60.9","30.18","337","9.1","24","0.46","0.00"
"22:59:57","33.1","20.7","60.1","30.18","337","12.4","33.6","0.46","0.00"
"23:04:56","33","20.6","60","30.18","342","14.8","30","0.46","0.00"
"23:09:59","33","20.6","60","30.18","325","12.3","24.2","0.46","0.00"
"23:14:56","33","20.6","60","30.18","317","11.5","25.3","0.46","0.00"
"23:19:56","33","20.5","59.8","30.18","327","12.4","32.4","0.46","0.00"
"23:24:57","32.8","20.3","59.7","30.18","332","14","32.2","0.46","0.00"
"23:29:58","32.8","20.2","59.5","30.18","339","13.5","26.5","0.46","0.00"
"23:34:56","32.7","20.4","60.2","30.18","324","11.7","26.5","0.46","0.00"
"23:39:57","32.6","20.3","60.2","30.18","343","11.9","24.2","0.46","0.00"
"23:44:58","32.6","20.5","60.8","30.19","343","11.3","24.2","0.46","0.00"
"23:49:56","32.5","20.5","61.1","30.19","330","6.2","17.3","0.46","0.00"
